| time (UTC) | temp C | wind direction | speed KPH | gust KPH | rain 1hr cm | rain 24hr cm | rain mn cm | humidity % | barometer mb |
| 20260503180517 | 16 | 148 | 8.0 | 11.3 | 0.00 | 0.00 | 0.00 | 65 | 1013.2 |
| 20260503180014 | 15 | 80 | 3.2 | 4.8 | 0.00 | 0.00 | 0.00 | 68 | 1013.2 |
| 20260503175512 | 15 | 166 | 3.2 | 4.8 | 0.00 | 0.00 | 0.00 | 69 | 1013.2 |
| 20260503175009 | 15 | 199 | 6.4 | 11.3 | 0.00 | 0.00 | 0.00 | 67 | 1013.3 |
| 20260503174506 | 16 | 138 | 9.7 | 11.3 | 0.00 | 0.00 | 0.00 | 66 | 1013.4 |
| 20260503174002 | 16 | 172 | 6.4 | 11.3 | 0.00 | 0.00 | 0.00 | 66 | 1013.0 |
| 20260503173457 | 16 | 143 | 3.2 | 4.8 | 0.00 | 0.00 | 0.00 | 66 | 1013.1 |
| 20260503172954 | 16 | 209 | 6.4 | 12.9 | 0.00 | 0.00 | 0.00 | 66 | 1013.0 |
| 20260503172452 | 16 | 187 | 1.6 | 1.6 | 0.00 | 0.00 | 0.00 | 66 | 1013.1 |
| 20260503171948 | 16 | 119 | 3.2 | 4.8 | 0.00 | 0.00 | 0.00 | 65 | 1013.2 |
| 20260503171445 | 16 | 204 | 3.2 | 4.8 | 0.00 | 0.00 | 0.00 | 69 | 1012.8 |
| 20260503170943 | 16 | 89 | 1.6 | 1.6 | 0.00 | 0.00 | 0.00 | 67 | 1013.1 |
| 20260503170438 | 16 | 86 | 1.6 | 1.6 | 0.00 | 0.00 | 0.00 | 67 | 1013.1 |
| 20260503150831 | 13 | 143 | 3.2 | 3.2 | 0.00 | 0.00 | 0.00 | 74 | 1012.8 |
| 20260503150327 | 13 | 92 | 3.2 | 3.2 | 0.00 | 0.00 | 0.00 | 74 | 1012.8 |
| 20260503140251 | 13 | 91 | 0.0 | 1.6 | 0.00 | 0.00 | 0.00 | 76 | 1012.0 |
| 20260503131221 | 12 | 135 | 1.6 | 1.6 | 0.00 | 0.00 | 0.00 | 76 | 1011.4 |
| 20260503130719 | 12 | 91 | 0.0 | 1.6 | 0.00 | 0.00 | 0.00 | 76 | 1011.3 |
| 20260503130215 | 12 | 158 | 6.4 | 9.7 | 0.00 | 0.00 | 0.00 | 76 | 1011.2 |
| 20260503120141 | 12 | 101 | 1.6 | 1.6 | 0.00 | 0.00 | 0.00 | 75 | 1010.9 |
| 20260503110609 | 12 | 88 | 1.6 | 3.2 | 0.00 | 0.00 | 0.00 | 75 | 1011.1 |
| 20260503110106 | 12 | 149 | 4.8 | 6.4 | 0.00 | 0.00 | 0.00 | 75 | 1011.0 |
| 20260503090456 | 12 | 172 | 6.4 | 9.7 | 0.00 | 0.00 | 0.00 | 76 | 1011.6 |
| 20260503081422 | 12 | 201 | 6.4 | 11.3 | 0.00 | 0.00 | 0.00 | 77 | 1011.6 |
| 20260503080919 | 12 | 176 | 6.4 | 9.7 | 0.00 | 0.00 | 0.00 | 77 | 1011.9 |
| 20260503080416 | 13 | 96 | 3.2 | 4.8 | 0.00 | 0.00 | 0.00 | 77 | 1011.8 |
| 20260503072852 | 13 | 94 | 3.2 | 3.2 | 0.00 | 0.00 | 0.00 | 77 | 1012.0 |
| 20260503072349 | 13 | 110 | 3.2 | 4.8 | 0.00 | 0.00 | 0.00 | 77 | 1012.0 |
| 20260503071845 | 13 | 167 | 6.4 | 9.7 | 0.00 | 0.00 | 0.00 | 76 | 1011.9 |
| 20260503071343 | 13 | 157 | 1.6 | 3.2 | 0.00 | 0.00 | 0.00 | 76 | 1012.0 |
| 20260503070839 | 13 | 97 | 0.0 | 1.6 | 0.00 | 0.00 | 0.00 | 77 | 1012.0 |
| 20260503070337 | 13 | 125 | 1.6 | 3.2 | 0.00 | 0.00 | 0.00 | 77 | 1012.1 |
| 20260503060308 | 13 | 87 | 0.0 | 0.0 | 0.00 | 0.00 | 0.00 | 76 | 1012.3 |
| 20260503054755 | 13 | 127 | 1.6 | 1.6 | 0.00 | 0.00 | 0.00 | 76 | 1012.4 |
| 20260503054252 | 12 | 180 | 3.2 | 4.8 | 0.00 | 0.00 | 0.00 | 76 | 1012.4 |
| 20260503053750 | 12 | 189 | 4.8 | 6.4 | 0.00 | 0.00 | 0.00 | 76 | 1012.5 |
| 20260503053248 | 12 | 100 | 1.6 | 3.2 | 0.00 | 0.00 | 0.00 | 76 | 1012.5 |
| 20260503052744 | 12 | 99 | 1.6 | 1.6 | 0.00 | 0.00 | 0.00 | 76 | 1012.7 |
| 20260503052241 | 13 | 107 | 1.6 | 1.6 | 0.00 | 0.00 | 0.00 | 76 | 1012.8 |
| 20260503051736 | 13 | 98 | 1.6 | 1.6 | 0.00 | 0.00 | 0.00 | 76 | 1012.9 |
| 20260503051234 | 13 | 81 | 0.0 | 1.6 | 0.00 | 0.00 | 0.00 | 75 | 1012.8 |
| 20260503050730 | 13 | 91 | 1.6 | 1.6 | 0.00 | 0.00 | 0.00 | 75 | 1012.6 |
| 20260503050227 | 13 | 95 | 3.2 | 3.2 | 0.00 | 0.00 | 0.00 | 75 | 1012.6 |
| 20260503045724 | 13 | 101 | 1.6 | 3.2 | 0.00 | 0.00 | 0.00 | 75 | 1012.4 |
| 20260503045222 | 13 | 119 | 1.6 | 1.6 | 0.00 | 0.00 | 0.00 | 76 | 1012.7 |
| 20260503044718 | 13 | 134 | 4.8 | 4.8 | 0.00 | 0.00 | 0.00 | 76 | 1012.4 |
| 20260503044216 | 13 | 114 | 1.6 | 3.2 | 0.00 | 0.00 | 0.00 | 76 | 1012.4 |
| 20260503043712 | 13 | 86 | 3.2 | 3.2 | 0.00 | 0.00 | 0.00 | 76 | 1012.3 |
| 20260503043210 | 13 | 81 | 1.6 | 3.2 | 0.00 | 0.00 | 0.00 | 76 | 1012.2 |
| 20260503042705 | 13 | 145 | 4.8 | 4.8 | 0.00 | 0.00 | 0.00 | 76 | 1012.4 |
| 20260503042202 | 13 | 143 | 0.0 | 1.6 | 0.00 | 0.00 | 0.00 | 76 | 1012.2 |
| 20260503041658 | 13 | 59 | 3.2 | 3.2 | 0.00 | 0.00 | 0.00 | 76 | 1012.1 |
| 20260503041156 | 13 | 112 | 1.6 | 3.2 | 0.00 | 0.00 | 0.00 | 76 | 1012.3 |
| 20260503040654 | 13 | 96 | 1.6 | 3.2 | 0.00 | 0.00 | 0.00 | 77 | 1012.0 |
| 20260503040151 | 13 | 188 | 6.4 | 9.7 | 0.00 | 0.00 | 0.00 | 76 | 1012.2 |
| 20260503035647 | 13 | 95 | 3.2 | 4.8 | 0.00 | 0.00 | 0.00 | 76 | 1012.0 |
| 20260503035145 | 13 | 101 | 3.2 | 3.2 | 0.00 | 0.00 | 0.00 | 76 | 1011.9 |
| 20260503034642 | 13 | 194 | 9.7 | 12.9 | 0.00 | 0.00 | 0.00 | 76 | 1012.0 |
| 20260503034139 | 13 | 93 | 0.0 | 1.6 | 0.00 | 0.00 | 0.00 | 77 | 1012.1 |
| 20260503033636 | 13 | 84 | 3.2 | 4.8 | 0.00 | 0.00 | 0.00 | 76 | 1012.0 |
| 20260503033134 | 13 | 171 | 6.4 | 6.4 | 0.00 | 0.00 | 0.00 | 76 | 1011.9 |
| 20260503032632 | 13 | 155 | 6.4 | 11.3 | 0.00 | 0.00 | 0.00 | 76 | 1011.9 |
| 20260503032131 | 13 | 103 | 8.0 | 11.3 | 0.00 | 0.00 | 0.00 | 76 | 1011.9 |
| 20260503031628 | 13 | 80 | 1.6 | 3.2 | 0.00 | 0.00 | 0.00 | 76 | 1011.6 |
| 20260503031125 | 13 | 83 | 0.0 | 1.6 | 0.00 | 0.00 | 0.00 | 76 | 1011.6 |
| 20260503030621 | 13 | 153 | 3.2 | 4.8 | 0.00 | 0.00 | 0.00 | 76 | 1011.6 |
| 20260503030118 | 13 | 98 | 1.6 | 3.2 | 0.00 | 0.00 | 0.00 | 76 | 1011.4 |
| 20260503025615 | 13 | 194 | 4.8 | 9.7 | 0.00 | 0.00 | 0.00 | 75 | 1011.4 |
| 20260503025113 | 13 | 175 | 1.6 | 3.2 | 0.00 | 0.00 | 0.00 | 75 | 1011.6 |
| 20260503024609 | 13 | 209 | 8.0 | 12.9 | 0.00 | 0.00 | 0.00 | 74 | 1011.4 |
| 20260503024106 | 13 | 100 | 3.2 | 3.2 | 0.00 | 0.00 | 0.00 | 74 | 1011.4 |
| 20260503023603 | 13 | 193 | 8.0 | 12.9 | 0.00 | 0.00 | 0.00 | 73 | 1011.2 |
| 20260503023100 | 13 | 174 | 6.4 | 11.3 | 0.00 | 0.00 | 0.00 | 73 | 1011.3 |
| 20260503022555 | 13 | 114 | 3.2 | 4.8 | 0.00 | 0.00 | 0.00 | 72 | 1011.1 |
| 20260503022050 | 13 | 123 | 6.4 | 11.3 | 0.00 | 0.00 | 0.00 | 71 | 1011.5 |
| 20260503021548 | 14 | 213 | 11.3 | 17.7 | 0.00 | 0.00 | 0.00 | 71 | 1011.3 |
| 20260503021044 | 14 | 109 | 0.0 | 1.6 | 0.00 | 0.00 | 0.00 | 70 | 1011.4 |
| 20260503020542 | 14 | 110 | 4.8 | 4.8 | 0.00 | 0.00 | 0.00 | 69 | 1011.4 |
| 20260503020038 | 14 | 86 | 1.6 | 1.6 | 0.00 | 0.00 | 0.00 | 69 | 1011.0 |
| 20260503015535 | 14 | 343 | 6.4 | 6.4 | 0.00 | 0.00 | 0.00 | 69 | 1011.2 |
| 20260503015033 | 15 | 148 | 6.4 | 9.7 | 0.00 | 0.00 | 0.00 | 68 | 1011.2 |
| 20260503014528 | 15 | 18 | 3.2 | 3.2 | 0.00 | 0.00 | 0.00 | 68 | 1011.3 |
| 20260503014026 | 15 | 196 | 6.4 | 9.7 | 0.00 | 0.00 | 0.00 | 67 | 1011.1 |
| 20260503013523 | 15 | 213 | 3.2 | 4.8 | 0.00 | 0.00 | 0.00 | 67 | 1011.2 |
| 20260503013021 | 15 | 94 | 4.8 | 4.8 | 0.00 | 0.00 | 0.00 | 66 | 1011.2 |
| 20260503012519 | 15 | 76 | 0.0 | 1.6 | 0.00 | 0.00 | 0.00 | 67 | 1011.2 |
| 20260503012014 | 15 | 300 | 9.7 | 12.9 | 0.00 | 0.00 | 0.00 | 66 | 1011.1 |
| 20260503011511 | 16 | 204 | 6.4 | 6.4 | 0.00 | 0.00 | 0.00 | 65 | 1011.2 |
| 20260503011008 | 16 | 276 | 4.8 | 4.8 | 0.00 | 0.00 | 0.00 | 64 | 1011.3 |
| 20260503010504 | 16 | 155 | 3.2 | 4.8 | 0.00 | 0.00 | 0.00 | 65 | 1011.2 |
| 20260503010002 | 16 | 329 | 3.2 | 4.8 | 0.00 | 0.00 | 0.00 | 65 | 1011.3 |
| 20260503005459 | 16 | 349 | 6.4 | 9.7 | 0.00 | 0.00 | 0.00 | 65 | 1011.4 |
| 20260503004956 | 16 | 96 | 4.8 | 6.4 | 0.00 | 0.00 | 0.00 | 64 | 1011.3 |
| 20260503004453 | 17 | 352 | 9.7 | 14.5 | 0.00 | 0.00 | 0.00 | 62 | 1011.5 |
| 20260503003950 | 17 | 125 | 3.2 | 4.8 | 0.00 | 0.00 | 0.00 | 62 | 1011.3 |
| 20260503003447 | 17 | 109 | 1.6 | 3.2 | 0.00 | 0.00 | 0.00 | 62 | 1011.2 |
| 20260503002944 | 17 | 99 | 6.4 | 9.7 | 0.00 | 0.00 | 0.00 | 61 | 1011.3 |
| 20260503002441 | 17 | 101 | 6.4 | 12.9 | 0.00 | 0.00 | 0.00 | 60 | 1011.4 |
| 20260503001937 | 17 | 82 | 3.2 | 6.4 | 0.00 | 0.00 | 0.00 | 60 | 1011.4 |
| 20260503001434 | 18 | 173 | 8.0 | 11.3 | 0.00 | 0.00 | 0.00 | 59 | 1011.4 |
| 20260503000932 | 18 | 144 | 1.6 | 3.2 | 0.00 | 0.00 | 0.00 | 59 | 1011.3 |
| 20260503000430 | 18 | 88 | 1.6 | 1.6 | 0.00 | 0.00 | 0.00 | 59 | 1011.4 |
| 20260502235926 | 18 | 173 | 6.4 | 9.7 | 0.00 | 0.00 | 0.00 | 58 | 1011.3 |
| 20260502235423 | 18 | 5 | 3.2 | 3.2 | 0.00 | 0.00 | 0.00 | 58 | 1011.2 |
| 20260502234920 | 18 | 302 | 6.4 | 9.7 | 0.00 | 0.00 | 0.00 | 58 | 1011.5 |
| 20260502234417 | 18 | 59 | 4.8 | 6.4 | 0.00 | 0.00 | 0.00 | 58 | 1011.2 |
| 20260502233914 | 18 | 212 | 4.8 | 6.4 | 0.00 | 0.00 | 0.00 | 59 | 1011.4 |
| 20260502233409 | 18 | 126 | 9.7 | 14.5 | 0.00 | 0.00 | 0.00 | 59 | 1011.4 |
| 20260502232907 | 18 | 210 | 8.0 | 11.3 | 0.00 | 0.00 | 0.00 | 60 | 1011.6 |
| 20260502232403 | 18 | 226 | 6.4 | 9.7 | 0.00 | 0.00 | 0.00 | 60 | 1011.6 |
| 20260502231859 | 18 | 87 | 3.2 | 9.7 | 0.00 | 0.00 | 0.00 | 59 | 1011.7 |
| 20260502231357 | 18 | 83 | 0.0 | 1.6 | 0.00 | 0.00 | 0.00 | 57 | 1011.9 |
| 20260502230855 | 18 | 239 | 9.7 | 14.5 | 0.00 | 0.00 | 0.00 | 57 | 1011.9 |
| 20260502230353 | 19 | 40 | 3.2 | 4.8 | 0.00 | 0.00 | 0.00 | 56 | 1011.9 |
| 20260502225850 | 19 | 109 | 4.8 | 4.8 | 0.00 | 0.00 | 0.00 | 55 | 1012.0 |
| 20260502225346 | 19 | 141 | 1.6 | 3.2 | 0.00 | 0.00 | 0.00 | 56 | 1011.9 |
| 20260502224843 | 19 | 183 | 11.3 | 20.9 | 0.00 | 0.00 | 0.00 | 55 | 1012.2 |
| 20260502224339 | 19 | 290 | 9.7 | 14.5 | 0.00 | 0.00 | 0.00 | 55 | 1012.2 |
| 20260502223837 | 19 | 218 | 8.0 | 11.3 | 0.00 | 0.00 | 0.00 | 56 | 1012.4 |
| 20260502223335 | 18 | 155 | 8.0 | 12.9 | 0.00 | 0.00 | 0.00 | 56 | 1012.2 |
| 20260502222832 | 19 | 184 | 11.3 | 17.7 | 0.00 | 0.00 | 0.00 | 55 | 1012.5 |
| 20260502222330 | 18 | 54 | 3.2 | 6.4 | 0.00 | 0.00 | 0.00 | 57 | 1012.4 |
| 20260502221825 | 18 | 180 | 17.7 | 25.7 | 0.00 | 0.00 | 0.00 | 56 | 1012.5 |
| 20260502221322 | 18 | 90 | 3.2 | 4.8 | 0.00 | 0.00 | 0.00 | 58 | 1012.6 |
| 20260502220819 | 18 | 183 | 6.4 | 9.7 | 0.00 | 0.00 | 0.00 | 58 | 1012.6 |
| 20260502220315 | 18 | 181 | 14.5 | 20.9 | 0.00 | 0.00 | 0.00 | 56 | 1012.7 |
| 20260502215811 | 18 | 192 | 9.7 | 16.1 | 0.00 | 0.00 | 0.00 | 59 | 1012.6 |
| 20260502215309 | 19 | 207 | 12.9 | 16.1 | 0.00 | 0.00 | 0.00 | 57 | 1012.6 |
| 20260502214806 | 19 | 243 | 9.7 | 12.9 | 0.00 | 0.00 | 0.00 | 57 | 1012.8 |
| 20260502214302 | 18 | 87 | 4.8 | 9.7 | 0.00 | 0.00 | 0.00 | 58 | 1012.8 |
| 20260502213800 | 18 | 135 | 1.6 | 3.2 | 0.00 | 0.00 | 0.00 | 60 | 1012.6 |
| 20260502213257 | 18 | 108 | 4.8 | 6.4 | 0.00 | 0.00 | 0.00 | 60 | 1012.8 |
| 20260502212755 | 18 | 47 | 4.8 | 4.8 | 0.00 | 0.00 | 0.00 | 60 | 1012.7 |
| 20260502212253 | 18 | 140 | 6.4 | 9.7 | 0.00 | 0.00 | 0.00 | 59 | 1012.8 |
| 20260502211749 | 18 | 136 | 6.4 | 6.4 | 0.00 | 0.00 | 0.00 | 59 | 1012.8 |
| 20260502211246 | 18 | 200 | 8.0 | 12.9 | 0.00 | 0.00 | 0.00 | 62 | 1012.9 |
| 20260502210743 | 18 | 17 | 6.4 | 9.7 | 0.00 | 0.00 | 0.00 | 61 | 1013.0 |
| 20260502210241 | 18 | 248 | 6.4 | 11.3 | 0.00 | 0.00 | 0.00 | 60 | 1013.0 |
| 20260502205738 | 19 | 277 | 6.4 | 9.7 | 0.00 | 0.00 | 0.00 | 60 | 1013.2 |
| 20260502205234 | 19 | 127 | 4.8 | 6.4 | 0.00 | 0.00 | 0.00 | 60 | 1013.2 |
| 20260502204731 | 19 | 123 | 6.4 | 9.7 | 0.00 | 0.00 | 0.00 | 59 | 1013.1 |
| 20260502204228 | 18 | 132 | 8.0 | 11.3 | 0.00 | 0.00 | 0.00 | 60 | 1013.2 |
| 20260502203726 | 18 | 112 | 6.4 | 11.3 | 0.00 | 0.00 | 0.00 | 63 | 1013.5 |
| 20260502203224 | 17 | 148 | 3.2 | 3.2 | 0.00 | 0.00 | 0.00 | 64 | 1013.5 |
| 20260502202717 | 18 | 186 | 4.8 | 6.4 | 0.00 | 0.00 | 0.00 | 64 | 1013.5 |
| 20260502202216 | 18 | 178 | 6.4 | 12.9 | 0.00 | 0.00 | 0.00 | 63 | 1013.6 |
| 20260502201713 | 18 | 219 | 6.4 | 14.5 | 0.00 | 0.00 | 0.00 | 62 | 1013.6 |
| 20260502201210 | 17 | 66 | 4.8 | 6.4 | 0.00 | 0.00 | 0.00 | 62 | 1013.8 |
| 20260502200705 | 17 | 163 | 6.4 | 6.4 | 0.00 | 0.00 | 0.00 | 64 | 1013.8 |
| 20260502200202 | 17 | 195 | 4.8 | 9.7 | 0.00 | 0.00 | 0.00 | 63 | 1013.9 |
| 20260502195701 | 17 | 232 | 14.5 | 17.7 | 0.00 | 0.00 | 0.00 | 62 | 1013.8 |
| 20260502195157 | 17 | 107 | 6.4 | 6.4 | 0.00 | 0.00 | 0.00 | 66 | 1013.8 |
| 20260502194654 | 17 | 305 | 1.6 | 3.2 | 0.00 | 0.00 | 0.00 | 67 | 1013.9 |
| 20260502194150 | 17 | 203 | 6.4 | 11.3 | 0.00 | 0.00 | 0.00 | 68 | 1013.7 |
| 20260502193647 | 16 | 89 | 3.2 | 3.2 | 0.00 | 0.00 | 0.00 | 68 | 1013.8 |
| 20260502193144 | 16 | 199 | 4.8 | 9.7 | 0.00 | 0.00 | 0.00 | 69 | 1013.9 |
| 20260502192639 | 17 | 113 | 3.2 | 6.4 | 0.00 | 0.00 | 0.00 | 67 | 1013.9 |
| 20260502192137 | 17 | 3 | 3.2 | 4.8 | 0.00 | 0.00 | 0.00 | 67 | 1013.8 |
| 20260502191633 | 16 | 183 | 4.8 | 12.9 | 0.00 | 0.00 | 0.00 | 70 | 1013.7 |
| 20260502191131 | 16 | 174 | 9.7 | 16.1 | 0.00 | 0.00 | 0.00 | 69 | 1013.9 |
| 20260502190628 | 16 | 169 | 9.7 | 12.9 | 0.00 | 0.00 | 0.00 | 68 | 1013.9 |
| 20260502190126 | 15 | 206 | 3.2 | 6.4 | 0.00 | 0.00 | 0.00 | 72 | 1013.8 |
| 20260502185620 | 15 | 203 | 11.3 | 17.7 | 0.00 | 0.00 | 0.00 | 73 | 1013.9 |
| 20260502185117 | 15 | 84 | 8.0 | 12.9 | 0.00 | 0.00 | 0.00 | 73 | 1014.0 |
| 20260502184614 | 15 | 246 | 12.9 | 16.1 | 0.00 | 0.00 | 0.00 | 73 | 1013.9 |
| 20260502184109 | 15 | 201 | 6.4 | 12.9 | 0.00 | 0.00 | 0.00 | 74 | 1013.8 |
| 20260502183606 | 16 | 191 | 12.9 | 22.5 | 0.00 | 0.00 | 0.00 | 72 | 1013.9 |
| 20260502183102 | 16 | 207 | 8.0 | 16.1 | 0.00 | 0.00 | 0.00 | 72 | 1013.7 |
| 20260502182557 | 16 | 198 | 8.0 | 16.1 | 0.00 | 0.00 | 0.00 | 72 | 1013.7 |
| 20260502182053 | 16 | 36 | 4.8 | 4.8 | 0.00 | 0.00 | 0.00 | 73 | 1013.7 |
| 20260502181551 | 16 | 92 | 1.6 | 3.2 | 0.00 | 0.00 | 0.00 | 72 | 1013.8 |
| 20260502181049 | 16 | 197 | 12.9 | 20.9 | 0.00 | 0.00 | 0.00 | 70 | 1013.8 |